Regional Weather Roundup
Issued by NWS Jackson, KY

Home | Current Version | Previous Version | Graphics & Text | Print | Product List | Glossary On
Versions: 1 2 3 4 5 6 7 8 9 10 11 12 13 14 15 16 17 18 19 20 21 22 23 24 25 26 27 28 29 30 31 32 33 34 35 36 37 38 39 40 41 42 43 44 45 46 47 48 49 50
000
ASUS43 KJKL 300911
RWRJKL

EAST KENTUCKY HOURLY WEATHER ROUNDUP
NATIONAL WEATHER SERVICE JACKSON KY
500 AM EDT SAT AUG 30 2014

NOTE: "FAIR" INDICATES FEW OR NO CLOUDS BELOW 12,000 FEET WITH
NO SIGNIFICANT WEATHER AND/OR OBSTRUCTIONS TO VISIBILITY.

* THESE REPORTS ARE NOT UNDER NWS QUALITY CONTROL AND MAY NOT
  REPORT WEATHER SUCH AS PRECIPITATION AND FOG.

KYZ079-080-083-085-087-088-110-112-115-119-120-301000
...EASTERN KENTUCKY...

CITY           SKY/WX    TMP DP  RH WIND       PRES   REMARKS
JACKSON        CLEAR     73  68  84 VRB3      30.13S
LONDON         CLEAR     70  66  87 CALM      30.12S
SOMERSET*      CLEAR     70  66  88 S6        30.11R
MONTICELLO*    CLEAR     70  66  86 S6        30.11R
WILLIAMSBURG*  PTCLDY    68  68 100 SE6       30.12S
MIDDLESBORO*   CLEAR     65  65  97 CALM      30.15R
HARLAN APT*    MOSUNNY   68  68 100 MISG      30.17R
BLACK MTN*       N/A     64  63  94 SW5         N/A
PIKEVILLE APT* CLEAR     73  68  83 S6        30.15R
BIG SANDY*     MOSUNNY   74  69  82 S6        30.13S
MOREHEAD APT*  MOSUNNY   70  68  94 S6        30.11R
$$

KYZ035-036-041-042-044-050-067-078-099-301000
...CENTRAL KENTUCKY...

CITY           SKY/WX    TMP DP  RH WIND       PRES   REMARKS
MT STERLING*   PTCLDY    72  70  94 SW6       30.10R
FLEMING/MASON* PTCLDY    70  70 100 S5        30.08S
DANVILLE*      CLEAR     68  64  88 S3        30.09S
RICHMOND*      MOCLDY    73  64  73 SE6       30.08S
LEXINGTON      MOCLDY    73  68  84 SE5       30.07S
FRANKFORT      CLEAR     70  65  84 CALM      30.05R
$$

KYZ091>093-OHZ055-061-077-WVZ005-015-034-035-042-301000
...SOUTHERN OHIO/WEST VIRGINIA...

CITY           SKY/WX    TMP DP  RH WIND       PRES   REMARKS
COVINGTON      CLEAR     70  66  87 S7        30.05R
COLUMBUS       PTCLDY    72  62  71 E3        30.04F
DAYTON         PTCLDY    73  68  84 S7        30.05R
WILMINGTON     PTCLDY    71  67  87 S6        30.05S
HUNTINGTON     PTCLDY    73  70  90 S3        30.08S
CHARLESTON     MOCLDY    70  70 100 CALM      30.11R
PINEVILLE*     CLEAR     68  68 100 MISG      30.24R FOG
BECKLEY        CLOUDY    68  64  87 S6        30.23S
BLUEFIELD      CLEAR     71  63  75 S8G17     30.26R
$$

VAZ002-007-008-TNZ017-027-036-066-071-301000
...SOUTHWEST VIRGINIA/EAST TENNESSEE...

CITY           SKY/WX    TMP DP  RH WIND       PRES   REMARKS
WISE*          CLEAR     70  68  94 S7        30.24S
JONESVILLE*      N/A     66  66 100 CALM      30.18S FOG
ABINGDON*      MOCLDY    69  67  93 CALM      30.23R
BRISTOL        PTCLDY    68  65  90 NE3       30.18S FOG
KNOXVILLE      PTCLDY    70  67  90 NW6       30.11S
OAK RIDGE      CLEAR     70  67  90 CALM      30.14R
CROSSVILLE     CLEAR     66  61  84 CALM      30.16R
NASHVILLE      MOCLDY    71  65  81 S5        30.05S
$$

...KEY TO REMARKS...
VSB - VISIBILITY IN MILES
WCI - WIND CHILL INDEX
HX  - HEAT INDEX

$$



USA.gov is the U.S. government's official web portal to all federal, state and local government web resources and services.